C/2019 E3 ( ATLAS )

Japanese version
Home page
Updated on May 2, 2021

---------------------------------------------------------------------

* Profile

Discovery Date March 5, 2019
Magnitude 18.4 mag
Discoverer Asteroid Terrestrial-Impact Last Alert System (ATLAS) search program

* Pictures

* Orbital Elements

Epoch 2023 Dec. 2.0 TT = JDT 2460280.5
T 2023 Nov. 15.28161 TT                                 Rudenko
q  10.3128926            (2000.0)            P               Q
z  +0.0001256      Peri.  280.69988     +0.15950404     +0.96239674
 +/-0.0000017      Node   347.23331     +0.26394109     -0.25620579
e   0.9987043      Incl.   84.29885     -0.95125894     +0.09028345
From 110 observations 2015 Jan. 22-2021 Mar. 13, mean residual 0".5.

* Finding Charts

* Magnitudes Graph

        m1 = 2.5 + 5 log d + 10.0 log r

---------------------------------------------------------------------

The orbital elements are published on M.P.E.C. 2021-F20.
The charts are made with StellaNavigator Ver.10 (AstroArts).
The magnitudes graphs are made with Comet for Windows.

---------------------------------------------------------------------

Copyright(C) Seiichi Yoshida (comet@aerith.net). All rights reserved.